Weather History for Ostrava, Czech Republic

Change the Weather History Date:

Thursday, October 25, 2012

  Actual Average (EPKT) Record (EPKT)
Temperature  
Mean Temperature 48 °F -  
Max Temperature 49 °F 46 °F 66 °F (1999)
Min Temperature 46 °F 35 °F 19 °F (2003)
Degree Days  
Heating Degree Days 18    
Moisture  
Dew Point 46 °F    
Average Humidity 91    
Maximum Humidity 94    
Minimum Humidity 83    
Precipitation  
Precipitation 0.00 in 0.06 in - ()
Sea Level Pressure  
Sea Level Pressure 29.90 in    
Wind  
Wind Speed 8 mph ()    
Max Wind Speed 21 mph    
Max Gust Speed -    
Visibility 3.3 miles    
Events Rain    
Averages and records for this station are not official NWS values.
T = Trace of Precipitation, MM = Missing Value Source: Averaged Metar Reports

Daily Weather History Graph

Daily Weather History Graph

Search for Another Location

Airport:

Trip Planner

Search our weather history database for the weather conditions in past years. The results will help you decide how hot, cold, wet, or windy it might be!

Date:

Astronomy

Oct. 25, 2012 Rise Set
Actual Time 7:25 AM CEST 5:36 PM CEST
Civil Twilight 6:52 AM CEST 6:10 PM CEST
Nautical Twilight 6:14 AM CEST 6:47 PM CEST
Astronomical Twilight 5:37 AM CEST 7:24 PM CEST
Moon 3:33 PM CEST (10/25) 2:41 AM CEST (10/25)
Length of Visible Light 11h 17m
Length of Day
10h 11m
Waxing Gibbous, 82% of the Moon is Illuminated
Oct 25
Waxing Gibbous
Oct 29
Full
Nov 7
Last Quarter
Nov 13
New
Nov 20
First Quarter

Hourly Weather History & Observations

Time (CEST) Temp. Windchill Dew Point Humidity Pressure Visibility Wind Dir Wind Speed Gust Speed Precip Events Conditions
12:00 AM 48.2 °F - 46.4 °F 93% 30.04 in 3.1 mi SSW 1.2 mph - N/A   Overcast
12:30 AM 48.2 °F - 46.4 °F 93% 30.04 in 2.5 mi WSW 2.3 mph - N/A   Overcast
1:00 AM 48.2 °F - 46.4 °F 93% 30.04 in 2.5 mi WSW 1.2 mph - N/A Rain Light Rain
1:30 AM 48.2 °F - 46.4 °F 93% 30.04 in 2.2 mi SW 2.3 mph - N/A   Overcast
2:00 AM 47 °F - 46 °F 94% 30.05 in 2 mi South 2.2 mph - - Rain Light Rain
2:00 AM 48.2 °F - 46.4 °F 93% 30.04 in 2.2 mi SSW 2.3 mph - N/A Rain Light Rain
2:30 AM 48.2 °F - 46.4 °F 93% 30.01 in 2.2 mi Variable 2.3 mph - N/A   Overcast
3:00 AM 48.2 °F - 46.4 °F 93% 30.01 in 1.9 mi SSW 4.6 mph - N/A   Overcast
3:30 AM 48.2 °F - 46.4 °F 93% 30.01 in 1.9 mi SW 4.6 mph - N/A   Overcast
4:00 AM 48.2 °F - 46.4 °F 93% 30.01 in 2.2 mi SSW 5.8 mph - N/A   Overcast
4:30 AM 48.2 °F - 46.4 °F 93% 29.98 in 2.2 mi SW 4.6 mph - N/A   Overcast
5:00 AM 48.2 °F - 46.4 °F 93% 29.98 in 2.2 mi WSW 3.5 mph - N/A   Overcast
5:30 AM 48.2 °F - 46.4 °F 93% 29.98 in 2.2 mi SW 4.6 mph - N/A   Overcast
6:00 AM 48.2 °F - 46.4 °F 93% 29.98 in 2.2 mi SW 5.8 mph - N/A   Mostly Cloudy
6:30 AM 48.2 °F - 46.4 °F 93% 29.95 in 2.5 mi SSW 8.1 mph - N/A   Mostly Cloudy
7:00 AM 48.2 °F - 46.4 °F 93% 29.95 in 2.2 mi SW 6.9 mph - N/A   Mostly Cloudy
7:30 AM 48.2 °F - 46.4 °F 93% 29.95 in 1.6 mi SW 6.9 mph - N/A   Overcast
8:00 AM 48 °F - 47 °F 93% 29.98 in 1 mi SW 8.9 mph - -   Mist
8:00 AM 48.2 °F - 46.4 °F 93% 29.95 in 1.1 mi SW 8.1 mph - N/A   Overcast
8:30 AM 48.2 °F - 46.4 °F 93% 29.95 in 0.9 mi SW 8.1 mph - N/A   Overcast
9:00 AM 48.2 °F - 46.4 °F 93% 29.95 in 1.1 mi SW 11.5 mph - N/A   Overcast
9:30 AM 48.2 °F - 46.4 °F 93% 29.92 in 1.2 mi SW 11.5 mph - N/A   Overcast
10:00 AM 48.2 °F - 46.4 °F 93% 29.92 in 1.6 mi SW 11.5 mph - N/A   Overcast
10:30 AM 48.2 °F - 46.4 °F 93% 29.92 in 1.6 mi SW 10.4 mph - N/A   Overcast
11:00 AM 48.2 °F - 46.4 °F 93% 29.92 in 1.9 mi SW 12.7 mph - N/A   Overcast
11:30 AM 48.2 °F - 46.4 °F 93% 29.89 in 1.9 mi SW 15.0 mph - N/A   Overcast
12:00 PM 48.2 °F - 46.4 °F 93% 29.89 in 2.2 mi SW 15.0 mph - N/A   Overcast
12:30 PM 50.0 °F - 46.4 °F 87% 29.89 in 2.5 mi SW 13.8 mph - N/A   Overcast
1:00 PM 48.2 °F - 46.4 °F 93% 29.89 in 2.2 mi WSW 12.7 mph - N/A   Light Drizzle
1:30 PM 48.2 °F - 46.4 °F 93% 29.86 in 1.9 mi SW 12.7 mph - N/A   Light Drizzle
2:00 PM 49 °F - 46 °F 86% 29.88 in 3 mi SW 15.7 mph - - Rain Light Drizzle
2:00 PM 48.2 °F - 46.4 °F 93% 29.86 in 2.8 mi SW 15.0 mph - N/A   Overcast
2:30 PM 48.2 °F - 44.6 °F 87% 29.86 in 2.8 mi SW 16.1 mph - N/A   Overcast
3:00 PM 48.2 °F - 44.6 °F 87% 29.83 in 3.1 mi SW 19.6 mph - N/A   Overcast
3:30 PM 48.2 °F - 44.6 °F 87% 29.83 in 3.7 mi SW 19.6 mph - N/A   Overcast
4:00 PM 48.2 °F - 44.6 °F 87% 29.83 in 4.3 mi SW 18.4 mph - N/A   Overcast
4:30 PM 48.2 °F - 44.6 °F 87% 29.83 in 5.0 mi SW 18.4 mph - N/A   Overcast
5:00 PM 48.2 °F - 44.6 °F 87% 29.80 in 5.0 mi SW 19.6 mph - N/A   Mostly Cloudy
5:30 PM 48.2 °F - 44.6 °F 87% 29.83 in 5.6 mi WSW 16.1 mph - N/A   Overcast
6:00 PM 46.4 °F 39.8 °F 44.6 °F 93% 29.83 in 4.3 mi SW 16.1 mph - N/A   Overcast
6:30 PM 46.4 °F 40.1 °F 44.6 °F 93% 29.83 in 5.0 mi SW 15.0 mph - N/A   Overcast
7:00 PM 46.4 °F 40.4 °F 44.6 °F 93% 29.83 in 5.0 mi SW 13.8 mph - N/A   Overcast
7:30 PM 46.4 °F 40.7 °F 42.8 °F 87% 29.83 in 6.2 mi SW 12.7 mph - N/A   Mostly Cloudy
8:00 PM 47 °F - 44 °F 83% 29.83 in 6 mi SW 13.4 mph - -   Overcast
8:00 PM 46.4 °F 40.4 °F 42.8 °F 87% 29.80 in 6.2 mi SW 13.8 mph - N/A   Mostly Cloudy
8:30 PM 46.4 °F 40.1 °F 42.8 °F 87% 29.80 in 6.2 mi SW 15.0 mph - N/A   Scattered Clouds
9:00 PM 46.4 °F 39.2 °F 44.6 °F 93% 29.80 in 6.2 mi SW 18.4 mph - N/A   Overcast
9:30 PM 46.4 °F 38.7 °F 44.6 °F 93% 29.80 in 6.2 mi SW 20.7 mph - N/A   Mostly Cloudy
10:00 PM 46.4 °F 40.1 °F 44.6 °F 93% 29.80 in 6.2 mi SW 15.0 mph - N/A   Mostly Cloudy
10:30 PM 46.4 °F 40.1 °F 44.6 °F 93% 29.80 in 6.2 mi SW 15.0 mph - N/A   Overcast
11:00 PM 48.2 °F - 44.6 °F 87% 29.80 in 6.2 mi SW 15.0 mph - N/A Rain Light Rain
11:30 PM 48.2 °F - 44.6 °F 87% 29.77 in 6.2 mi SW 13.8 mph - N/A   Overcast